Location: *
(60.1759°S, 155.0663°W)
Time: 03:16:48
(UTC+00:00)

Cosmos 1777 Rocket - Pass Details

Date: 17 September 2019
Orbit: 759 x 775 km, 74.0° (Epoch: 22 October)

Event Time Altitude Azimuth Distance (km) Brightness Sun altitude
Exits shadow 14:22:57 24° 309° (NW) 1,578 5.0 -15.5°
Maximum altitude 14:26:10 66° 232° (SW) 850 4.1 -15.1°
Drops below altitude 10° 14:31:28 10° 149° (SSE) 2,337 7.3 -14.5°
Sets 14:33:53 0° 146° (SE) 3,270 8.2 -14.2°
